Regional Weather Roundup
Issued by NWS

Home | Current Version | Previous Version | Text Only | Print | Product List | Glossary Off
Versions: 1 2 3 4 5 6 7 8 9 10 11 12 13 14 15 16 17 18 19 20 21 22 23 24 25 26 27 28 29 30 31 32 33 34 35 36 37 38 39 40 41 42 43 44 45 46 47 48 49 50

579
ASUS43 KMKX 252021
RWRWI

WISCONSIN REGIONAL WEATHER ROUNDUP
NATIONAL WEATHER SERVICE MILWAUKEE/SULLIVAN WI
300 PM CDT SUN SEP 25 2016

NOTE: "FAIR" INDICATES FEW OR NO CLOUDS BELOW 12,000 FEET WITH NO
SIGNIFICANT WEATHER AND/OR OBSTRUCTIONS TO VISIBILITY.

WIZ001-002-006>008-014>016-023>028-252100-
NORTHWEST WISCONSIN

CITY           SKY/WX    TMP DP  RH WIND       PRES   REMARKS
SUPERIOR ARPT  CLOUDY    64  54  71 W25G31    29.79R
ASHLAND        PTSUNNY   72  61  68 SW22G35   29.77F
HAYWARD        PTSUNNY   68  53  58 SW14G24   29.82F
SIREN          CLOUDY    62  51  68 SW8G17    29.86S
CUMBERLAND     CLOUDY    63  52  67 W17G25    29.86S
RICE LAKE      CLOUDY    67  52  57 SW9G20    29.87F
CHETEK         NOT AVBL
LADYSMITH      CLOUDY    68  61  79 S9        29.86F
EAU CLAIRE     PTSUNNY   67  55  65 SW21      29.87F
MENOMONIE      CLOUDY    65  64  97 SW9       29.88F
NEW RICHMOND   CLOUDY    62  51  67 SW14      29.89S
OSCEOLA        CLOUDY    64  53  66 SW14      29.91F
$$

WIZ003>005-009-010-017-018-252100-
NORTH CENTRAL WISCONSIN

CITY           SKY/WX    TMP DP  RH WIND       PRES   REMARKS
MANITOWISH WTR NOT AVBL
ARBOR VITAE    DRIZZLE   64  64  97 S10       29.85F
WOODRUFF       DRIZZLE   64  64  97 S10       29.85F
RHINELANDER    CLOUDY    66  66 100 S8        29.86F FOG
EAGLE RIVER    DRIZZLE   64  64 100 S5        29.86F
LAND O LAKES   LGT RAIN  64  64  97 S8        29.87F
PHILLIPS       CLOUDY    68  65  92 SW9       29.83F
TOMAHAWK       LGT RAIN  65  64  96 CALM      29.86F
MEDFORD        PTSUNNY   69  69 100 SW14      29.86F
MERRILL        CLOUDY    68  68 100 SW8       29.87F FOG
$$

WIZ029-030-035-036-043>047-252100-
CENTRAL WISCONSIN

CITY           SKY/WX    TMP DP  RH WIND       PRES   REMARKS
WAUSAU         CLOUDY    69  66  90 S8        29.84F
MOSINEE        PTSUNNY   68  68 100 SW12G18   29.88F FOG
MARSHFIELD     CLOUDY    72  65  78 SW14      29.86F
STEVENS POINT  LGT RAIN  69  68  97 W7        29.88F
WAUPACA        RAIN      74  73  96 SW10      29.87F
WAUTOMA        CLOUDY    73  70  90 SW7       29.88F
WISC RAPIDS    CLOUDY    72  69  90 SW7       29.88F
CAMP DOUGLAS   CLOUDY    74  67  78 S9        29.87F
$$

WIZ011>013-019>022-031-037>040-048>050-252100-
NORTHEAST WISCONSIN

CITY           SKY/WX    TMP DP  RH WIND       PRES   REMARKS
ANTIGO         CLOUDY    66  66 100 S6        29.88F FOG
SHAWANO        CLOUDY    75  69  81 S9        29.86F
OCONTO         NOT AVBL
STURGEON BAY   CLOUDY    67  63  87 S17G29    29.91F
GREEN BAY      CLOUDY    75  67  76 SE16G23   29.86F
MANITOWOC      CLOUDY    68  62  81 S23G30    29.92F
APPLETON       PTSUNNY   75  63  64 S16       29.85F
CLINTONVILLE   NOT AVBL
OSHKOSH        CLOUDY    79  68  69 S15G26    29.86F HX  81
$$

WIZ032>034-041-042-053>061-252100-
SOUTHWEST WISCONSIN

CITY           SKY/WX    TMP DP  RH WIND       PRES   REMARKS
LA CROSSE      CLOUDY    77  63  61 SW13      29.87F
SPARTA         PTSUNNY   73  67  80 W8        29.88F
VIROQUA        CLOUDY    73  65  75 SW13G21   29.91F
BOSCOBEL       CLOUDY    76  67  73 W9        29.89F
PRAIRIE DU CHI CLOUDY    74  64  72 SW3       29.90F
PLATTEVILLE    CLOUDY    77  68  72 W13G18    29.93F
$$

WIZ056-057-062-063-064-067-068-252100-
SOUTH CENTRAL WISCONSIN

CITY           SKY/WX    TMP DP  RH WIND       PRES   REMARKS
REEDSBURG      NOT AVBL
BARABOO/DELLS  CLOUDY    75  67  77 W10       29.89F
LONE ROCK      CLOUDY    76  69  79 W7        29.89F
MINERAL POINT  MOSUNNY   77  68  73 W10       29.92F
MADISON        CLOUDY    75  71  87 VRB3      29.88F
MIDDLETON      CLOUDY    78  71  78 SW9       29.89F HX  81
WATERTOWN      PTSUNNY   78  71  77 SE6       29.86F HX  81
MONROE         CLOUDY    75  70  83 SW12      29.91F
JANESVILLE     NOT AVBL
$$

WIZ051-052-058>065-066-070>072-252100-
SOUTHEAST WISCONSIN

CITY           SKY/WX    TMP DP  RH WIND       PRES   REMARKS
MILWAUKEE      MOSUNNY   75  64  68 SE18      29.92F
WAUKESHA       PTSUNNY   81  66  61 SE12      29.91F HX  83
MILWAUKEE/TIMM MOSUNNY   77  61  57 SE7       29.92F
RACINE         SUNNY     73  63  70 SE17      29.95F
BURLINGTON     SUNNY     83  65  55 S9G18     29.90F HX  84
KENOSHA        SUNNY     78  66  66 SE12      29.93F HX  80
FOND DU LAC    CLOUDY    81  67  62 S17G23    29.87F HX  83
SHEBOYGAN      CLOUDY    69  62  78 S18G29    29.92F
WEST BEND      CLOUDY    72  63  73 SE6       29.91F
JUNEAU         CLOUDY    77  68  74 SE9       29.89F
$$

LSZ147-162-252100-
LAKE SUPERIOR

STATION/POSITION TIME  TEMP    WIND        PRES    WAVE
                       AIR SEA DIR/SP/G            HT/PER
                 (UTC) (F)     (DEG/KT/KT) (MB)    (FT/S)
W MID LAKE BUOY  1950   65 62  170/ 16/ 17 1006.8F   3/ 4
DEVILS ISLAND    2000   67     190/  8/ 12 1007.0F
SAXON HARBOR     1940   72     210/  9/ 17 1007.8F
$$

LMZ867-665-643>646-252100-
LAKE MICHIGAN

STATION/POSITION TIME  TEMP    WIND        PRES    WAVE
                       AIR SEA DIR/SP/G            HT/PER
                 (UTC) (F)     (DEG/KT/KT) (MB)    (FT/S)
CHAMBERS ISLAND  1900   69     140/  8/ 18 1013.2F
N MID LAKE BUOY  1950   68 68  150/ 10/ 14 1014.0F   4/ 6
NORTHPORT PIER   1900   67     150/ 16/ 22 1014.2
KEWAUNEE LAKESHO 1900   66     170/ 17/ 24 1014.1F
SHEBOYGAN LAKESH 2000   64     170/ 12/ 13 1012.7F
PORT WASHINGTON  1920   65     170/  5/ 18 1014.9F
ATWATER BUOY     2000   61 52  150/ 10/ 14 1013.3F
MILWAUKEE LAKESH 1910   63     140/ 14/ 15   N/A
S MID LAKE BUOY  1950   72 72  130/ 16/ 19 1014.3F   3/ 5
KENOSHA   LAKESH 2000   68     170/ 11/ 13 1013.2F
$$

TC  - TEMPERATURE IN CELSIUS
VSB - VISIBILITY IN STATUTE MILES
WCI - WIND CHILL INDEX
HX  - HEAT INDEX





USA.gov is the U.S. government's official web portal to all federal, state and local government web resources and services.